| time (UTC) | temp C | wind direction | speed KPH | gust KPH | rain 1hr cm | rain 24hr cm | rain mn cm | humidity % | barometer mb |
| 20260504110339 | 5 | 307 | 11.3 | 19.3 | 0.03 | 0.79 | 0.69 | 86 | 1006.7 |
| 20260504100346 | 4 | 299 | 9.7 | 14.5 | 0.08 | 0.76 | 0.66 | 90 | 1006.4 |
| 20260504081338 | 3 | 279 | 1.6 | 4.8 | 0.10 | 0.61 | 0.51 | 92 | 1006.0 |
| 20260504080723 | 3 | 287 | 8.0 | 9.7 | 0.08 | 0.58 | 0.48 | 92 | 1005.9 |
| 20260504080339 | 3 | 277 | 8.0 | 11.3 | 0.08 | 0.58 | 0.48 | 91 | 1005.9 |
| 20260504070344 | 3 | 267 | 3.2 | 12.9 | 0.08 | 0.51 | 0.41 | 92 | 1005.3 |
| 20260504050721 | 3 | 340 | 1.6 | 3.2 | 0.03 | 0.38 | 0.28 | 89 | 1004.2 |
| 20260504050337 | 3 | 348 | 3.2 | 4.8 | 0.03 | 0.38 | 0.28 | 90 | 1004.1 |
| 20260504045339 | 3 | 341 | 0.0 | 3.2 | 0.05 | 0.38 | 0.28 | 90 | 1004.1 |
| 20260504045218 | 3 | 341 | 1.6 | 3.2 | 0.03 | 0.36 | 0.25 | 90 | 1004.0 |
| 20260504044340 | 3 | 325 | 1.6 | 3.2 | 0.03 | 0.36 | 0.25 | 90 | 1004.0 |
| 20260504043725 | 3 | 349 | 1.6 | 4.8 | 0.03 | 0.36 | 0.25 | 90 | 1003.9 |
| 20260504043341 | 3 | 320 | 1.6 | 4.8 | 0.03 | 0.36 | 0.25 | 90 | 1004.0 |
| 20260504042342 | 3 | 309 | 1.6 | 3.2 | 0.03 | 0.36 | 0.25 | 91 | 1003.9 |
| 20260504042221 | 3 | 315 | 3.2 | 4.8 | 0.03 | 0.36 | 0.25 | 91 | 1003.9 |
| 20260504041344 | 3 | 309 | 1.6 | 4.8 | 0.03 | 0.36 | 0.25 | 91 | 1003.8 |
| 20260504040717 | 3 | 1 | 3.2 | 4.8 | 0.05 | 0.36 | 0.25 | 91 | 1003.6 |
| 20260504040343 | 3 | 333 | 3.2 | 4.8 | 0.05 | 0.36 | 0.25 | 91 | 1003.7 |
| 20260504035345 | 3 | 337 | 3.2 | 4.8 | 0.03 | 0.33 | 0.23 | 92 | 1003.6 |
| 20260504035224 | 3 | 297 | 1.6 | 3.2 | 0.03 | 0.33 | 0.23 | 92 | 1003.6 |
| 20260504034346 | 3 | 19 | 1.6 | 1.6 | 0.03 | 0.36 | 0.23 | 92 | 1003.5 |
| 20260504033720 | 3 | 315 | 0.0 | 4.8 | 0.03 | 0.36 | 0.23 | 92 | 1003.4 |
| 20260504033336 | 3 | 324 | 0.0 | 1.6 | 0.03 | 0.36 | 0.23 | 92 | 1003.4 |
| 20260504032338 | 3 | 328 | 1.6 | 4.8 | 0.03 | 0.36 | 0.23 | 91 | 1003.4 |
| 20260504032217 | 3 | 315 | 1.6 | 3.2 | 0.03 | 0.36 | 0.23 | 92 | 1003.3 |
| 20260504031339 | 3 | 310 | 3.2 | 4.8 | 0.03 | 0.36 | 0.23 | 91 | 1003.3 |
| 20260504030723 | 3 | 326 | 1.6 | 3.2 | 0.00 | 0.33 | 0.20 | 91 | 1003.1 |
| 20260504030340 | 3 | 315 | 1.6 | 3.2 | 0.00 | 0.33 | 0.20 | 91 | 1003.2 |
| 20260504025341 | 3 | 328 | 3.2 | 9.7 | 0.00 | 0.33 | 0.20 | 91 | 1003.1 |
| 20260504025220 | 3 | 317 | 3.2 | 4.8 | 0.00 | 0.33 | 0.20 | 91 | 1003.2 |
| 20260504024342 | 3 | 311 | 1.6 | 3.2 | 0.00 | 0.33 | 0.20 | 91 | 1003.1 |
| 20260504023717 | 3 | 314 | 3.2 | 8.0 | 0.03 | 0.33 | 0.20 | 91 | 1003.1 |
| 20260504023343 | 3 | 312 | 3.2 | 4.8 | 0.03 | 0.33 | 0.20 | 91 | 1003.1 |
| 20260504022345 | 3 | 323 | 3.2 | 4.8 | 0.05 | 0.33 | 0.20 | 91 | 1003.0 |
| 20260504022223 | 3 | 316 | 1.6 | 3.2 | 0.05 | 0.33 | 0.20 | 91 | 1003.0 |
| 20260504021346 | 3 | 298 | 1.6 | 4.8 | 0.05 | 0.33 | 0.20 | 91 | 1003.1 |
| 20260504020720 | 3 | 335 | 1.6 | 3.2 | 0.05 | 0.33 | 0.20 | 91 | 1003.1 |
| 20260504020336 | 3 | 336 | 3.2 | 8.0 | 0.05 | 0.33 | 0.20 | 91 | 1003.0 |
| 20260504015338 | 4 | 326 | 3.2 | 4.8 | 0.05 | 0.33 | 0.20 | 90 | 1003.0 |
| 20260504015217 | 4 | 339 | 3.2 | 4.8 | 0.08 | 0.33 | 0.20 | 90 | 1003.0 |
| 20260504014339 | 4 | 308 | 3.2 | 4.8 | 0.10 | 0.33 | 0.20 | 90 | 1003.0 |
| 20260504013723 | 4 | 320 | 4.8 | 8.0 | 0.10 | 0.30 | 0.18 | 90 | 1003.0 |
| 20260504013339 | 4 | 308 | 3.2 | 9.7 | 0.10 | 0.30 | 0.18 | 90 | 1003.0 |
| 20260504012341 | 4 | 307 | 1.6 | 4.8 | 0.08 | 0.28 | 0.15 | 90 | 1002.7 |
| 20260504012220 | 4 | 288 | 1.6 | 4.8 | 0.08 | 0.28 | 0.15 | 90 | 1002.5 |
| 20260504011342 | 4 | 359 | 1.6 | 3.2 | 0.10 | 0.28 | 0.15 | 89 | 1002.5 |
| 20260504010716 | 5 | 322 | 0.0 | 0.0 | 0.10 | 0.28 | 0.15 | 89 | 1002.4 |
| 20260504010343 | 5 | 322 | 0.0 | 0.0 | 0.10 | 0.28 | 0.15 | 89 | 1002.5 |
| 20260504005344 | 5 | 330 | 1.6 | 3.2 | 0.10 | 0.28 | 0.15 | 89 | 1002.5 |
| 20260504005223 | 5 | 283 | 0.0 | 1.6 | 0.08 | 0.25 | 0.13 | 89 | 1002.4 |
| 20260504004346 | 5 | 317 | 1.6 | 3.2 | 0.05 | 0.23 | 0.10 | 88 | 1002.4 |
| 20260504003720 | 5 | 294 | 1.6 | 4.8 | 0.03 | 0.23 | 0.08 | 88 | 1002.5 |
| 20260504003336 | 5 | 316 | 1.6 | 4.8 | 0.03 | 0.23 | 0.08 | 87 | 1002.4 |
| 20260504002337 | 5 | 287 | 3.2 | 4.8 | 0.03 | 0.23 | 0.08 | 87 | 1002.3 |
| 20260504002216 | 5 | 279 | 1.6 | 3.2 | 0.03 | 0.23 | 0.08 | 87 | 1002.4 |
| 20260504001339 | 5 | 284 | 1.6 | 3.2 | 0.00 | 0.20 | 0.05 | 87 | 1002.5 |
| 20260504000723 | 5 | 301 | 1.6 | 3.2 | 0.00 | 0.20 | 0.05 | 86 | 1002.5 |
| 20260504000339 | 5 | 319 | 0.0 | 1.6 | 0.00 | 0.20 | 0.05 | 86 | 1002.5 |
| 20260503235341 | 5 | 292 | 1.6 | 4.8 | 0.00 | 0.20 | 0.05 | 86 | 1002.6 |
| 20260503235220 | 5 | 314 | 1.6 | 4.8 | 0.00 | 0.20 | 0.05 | 86 | 1002.5 |
| 20260503234342 | 5 | 345 | 1.6 | 3.2 | 0.00 | 0.20 | 0.05 | 85 | 1002.5 |
| 20260503233716 | 5 | 36 | 0.0 | 1.6 | 0.00 | 0.20 | 0.05 | 85 | 1002.3 |
| 20260503233342 | 5 | 17 | 1.6 | 3.2 | 0.00 | 0.20 | 0.05 | 85 | 1002.4 |
| 20260503232344 | 5 | 18 | 1.6 | 4.8 | 0.00 | 0.20 | 0.05 | 84 | 1002.5 |
| 20260503232223 | 5 | 11 | 3.2 | 8.0 | 0.00 | 0.20 | 0.05 | 84 | 1002.5 |
| 20260503231345 | 5 | 355 | 3.2 | 3.2 | 0.00 | 0.20 | 0.05 | 84 | 1002.3 |
| 20260503230720 | 5 | 37 | 1.6 | 3.2 | 0.00 | 0.20 | 0.05 | 84 | 1002.3 |
| 20260503230336 | 5 | 2 | 4.8 | 9.7 | 0.00 | 0.20 | 0.05 | 84 | 1002.2 |
| 20260503225337 | 5 | 10 | 3.2 | 9.7 | 0.00 | 0.20 | 0.05 | 84 | 1002.1 |
| 20260503225216 | 5 | 86 | 1.6 | 3.2 | 0.00 | 0.20 | 0.05 | 84 | 1002.1 |
| 20260503224338 | 5 | 89 | 11.3 | 16.1 | 0.00 | 0.20 | 0.05 | 84 | 1001.8 |
| 20260503223723 | 5 | 59 | 8.0 | 12.9 | 0.00 | 0.23 | 0.05 | 84 | 1001.8 |
| 20260503223339 | 5 | 79 | 4.8 | 4.8 | 0.00 | 0.23 | 0.05 | 84 | 1001.9 |
| 20260503222341 | 5 | 83 | 1.6 | 4.8 | 0.00 | 0.23 | 0.05 | 84 | 1002.0 |
| 20260503222219 | 5 | 50 | 1.6 | 4.8 | 0.00 | 0.23 | 0.05 | 84 | 1001.9 |
| 20260503221342 | 5 | 75 | 3.2 | 4.8 | 0.00 | 0.23 | 0.05 | 84 | 1002.0 |
| 20260503220716 | 5 | 56 | 3.2 | 9.7 | 0.00 | 0.23 | 0.05 | 84 | 1002.0 |
| 20260503220342 | 5 | 49 | 1.6 | 4.8 | 0.00 | 0.23 | 0.05 | 84 | 1002.0 |
| 20260503215344 | 5 | 3 | 3.2 | 4.8 | 0.00 | 0.23 | 0.05 | 83 | 1002.1 |
| 20260503215223 | 5 | 50 | 8.0 | 11.3 | 0.00 | 0.23 | 0.05 | 83 | 1002.2 |
| 20260503214345 | 5 | 9 | 4.8 | 19.3 | 0.00 | 0.23 | 0.05 | 83 | 1002.1 |
| 20260503213719 | 5 | 44 | 11.3 | 16.1 | 0.00 | 0.23 | 0.05 | 83 | 1002.1 |
| 20260503213335 | 5 | 8 | 3.2 | 11.3 | 0.00 | 0.23 | 0.05 | 83 | 1002.0 |
| 20260503212337 | 5 | 26 | 3.2 | 11.3 | 0.00 | 0.23 | 0.05 | 83 | 1001.9 |
| 20260503212216 | 5 | 26 | 3.2 | 8.0 | 0.00 | 0.23 | 0.05 | 83 | 1001.9 |
| 20260503211338 | 5 | 59 | 3.2 | 9.7 | 0.00 | 0.23 | 0.05 | 83 | 1001.8 |
| 20260503210723 | 6 | 47 | 8.0 | 19.3 | 0.00 | 0.23 | 0.05 | 82 | 1001.8 |
| 20260503210339 | 6 | 59 | 9.7 | 14.5 | 0.00 | 0.23 | 0.05 | 82 | 1001.9 |
| 20260503205340 | 6 | 57 | 9.7 | 14.5 | 0.00 | 0.23 | 0.05 | 82 | 1001.9 |
| 20260503205219 | 6 | 48 | 11.3 | 19.3 | 0.00 | 0.23 | 0.05 | 82 | 1001.9 |
| 20260503204341 | 6 | 83 | 4.8 | 16.1 | 0.00 | 0.23 | 0.05 | 82 | 1001.9 |
| 20260503203716 | 6 | 43 | 3.2 | 19.3 | 0.00 | 0.23 | 0.05 | 82 | 1002.0 |
| 20260503203342 | 6 | 53 | 4.8 | 11.3 | 0.00 | 0.23 | 0.05 | 82 | 1002.0 |
| 20260503202344 | 6 | 88 | 12.9 | 22.5 | 0.03 | 0.23 | 0.05 | 82 | 1001.9 |
| 20260503202223 | 6 | 136 | 8.0 | 11.3 | 0.03 | 0.23 | 0.05 | 82 | 1001.9 |
| 20260503201345 | 6 | 91 | 12.9 | 20.9 | 0.03 | 0.23 | 0.05 | 83 | 1001.8 |
| 20260503200719 | 5 | 83 | 9.7 | 20.9 | 0.05 | 0.23 | 0.05 | 84 | 1001.8 |
| 20260503200345 | 5 | 91 | 14.5 | 16.1 | 0.05 | 0.23 | 0.05 | 84 | 1001.8 |
| 20260503195337 | 5 | 109 | 3.2 | 9.7 | 0.05 | 0.23 | 0.05 | 85 | 1001.8 |
| 20260503195216 | 5 | 93 | 4.8 | 20.9 | 0.05 | 0.23 | 0.05 | 85 | 1001.8 |
| 20260503194338 | 5 | 108 | 4.8 | 8.0 | 0.05 | 0.23 | 0.05 | 85 | 1001.9 |
| 20260503193722 | 5 | 92 | 8.0 | 11.3 | 0.00 | 0.23 | 0.05 | 85 | 1001.8 |
| 20260503193338 | 5 | 87 | 12.9 | 24.1 | 0.00 | 0.23 | 0.05 | 84 | 1001.9 |
| 20260503192340 | 5 | 71 | 8.0 | 14.5 | 0.00 | 0.20 | 0.03 | 84 | 1001.8 |
| 20260503192219 | 5 | 36 | 4.8 | 9.7 | 0.00 | 0.20 | 0.03 | 84 | 1001.9 |
| 20260503191341 | 6 | 77 | 8.0 | 24.1 | 0.00 | 0.20 | 0.03 | 84 | 1001.8 |
| 20260503190716 | 6 | 90 | 4.8 | 11.3 | 0.00 | 0.18 | 0.00 | 83 | 1001.9 |
| 20260503190342 | 6 | 85 | 11.3 | 20.9 | 0.00 | 0.18 | 0.00 | 83 | 1002.0 |
| 20260503185343 | 6 | 96 | 16.1 | 32.2 | 0.00 | 0.18 | 0.00 | 83 | 1002.0 |
| 20260503185222 | 6 | 91 | 22.5 | 40.2 | 0.00 | 0.18 | 0.00 | 83 | 1002.1 |
| 20260503184345 | 6 | 91 | 19.3 | 41.8 | 0.00 | 0.18 | 0.00 | 83 | 1001.9 |
| 20260503183719 | 6 | 92 | 24.1 | 48.3 | 0.05 | 0.18 | 0.18 | 82 | 1001.9 |
| 20260503183345 | 6 | 94 | 24.1 | 40.2 | 0.05 | 0.18 | 0.18 | 82 | 1002.0 |
| 20260503182337 | 6 | 86 | 32.2 | 48.3 | 0.10 | 0.18 | 0.18 | 81 | 1001.9 |
| 20260503182216 | 6 | 97 | 16.1 | 32.2 | 0.10 | 0.18 | 0.18 | 81 | 1002.0 |
| 20260503181338 | 6 | 103 | 16.1 | 20.9 | 0.10 | 0.18 | 0.18 | 82 | 1001.8 |
| 20260503180722 | 6 | 77 | 9.7 | 27.4 | 0.08 | 0.15 | 0.15 | 84 | 1001.9 |
| 20260503180338 | 6 | 60 | 9.7 | 20.9 | 0.08 | 0.15 | 0.15 | 85 | 1001.8 |
| 20260503175340 | 6 | 60 | 8.0 | 9.7 | 0.08 | 0.15 | 0.15 | 85 | 1001.9 |
| 20260503175219 | 6 | 72 | 4.8 | 11.3 | 0.08 | 0.15 | 0.15 | 85 | 1001.9 |
| 20260503174341 | 6 | 74 | 4.8 | 14.5 | 0.08 | 0.15 | 0.15 | 85 | 1002.0 |
| 20260503173715 | 6 | 65 | 11.3 | 16.1 | 0.05 | 0.13 | 0.13 | 84 | 1001.8 |
| 20260503173341 | 6 | 61 | 8.0 | 20.9 | 0.05 | 0.13 | 0.13 | 84 | 1001.8 |
| 20260503172343 | 6 | 59 | 9.7 | 22.5 | 0.00 | 0.08 | 0.08 | 83 | 1001.9 |
| 20260503172222 | 6 | 63 | 12.9 | 25.7 | 0.00 | 0.08 | 0.08 | 83 | 1001.9 |
| 20260503171344 | 6 | 75 | 4.8 | 24.1 | 0.00 | 0.08 | 0.08 | 82 | 1001.8 |
| 20260503170719 | 6 | 42 | 8.0 | 14.5 | 0.00 | 0.08 | 0.08 | 81 | 1001.9 |
| 20260503170345 | 7 | 77 | 16.1 | 19.3 | 0.00 | 0.08 | 0.08 | 81 | 1001.9 |
| 20260503150720 | 7 | 93 | 12.9 | 22.5 | 0.00 | 0.08 | 0.08 | 78 | 1002.5 |
| 20260503150336 | 7 | 63 | 3.2 | 4.8 | 0.00 | 0.08 | 0.08 | 78 | 1002.4 |
| 20260503131338 | 8 | 38 | 8.0 | 14.5 | 0.00 | 0.13 | 0.08 | 77 | 1004.1 |
| 20260503130723 | 8 | 17 | 3.2 | 8.0 | 0.00 | 0.13 | 0.08 | 77 | 1004.2 |
| 20260503130339 | 8 | 21 | 4.8 | 9.7 | 0.00 | 0.13 | 0.08 | 77 | 1004.2 |